Wind_Speed
28 35 30 23 26 29 29 31 32 28 23 23 24 24 23 21 20 20 19 19 22 24 24 22 21 22 21 19 17 16 17 17 17 16 16 16 16 16 17 16 16 14
28 35 30 20 23 28 27 29 32 30 23 22 23 24 23 22 21 20 20 19 22 25 25 23 22 22 22 21 20 18 16 16 16 15 15 15 15 16 17 16 16 15
28 33 31 24 24 27 26 28 31 29 23 21 24 24 23 23 22 22 21 20 22 26 27 25 24 23 23 23 22 20 18 16 15 15 15 14 14 13 13 14 15 15
29 34 33 27 27 27 27 29 30 28 24 23 26 23 22 24 23 23 23 20 21 25 27 27 25 22 23 25 23 20 20 17 15 16 16 15 14 14 13 14 14 14
34 36 32 28 29 29 30 32 31 30 26 26 28 24 22 24 24 24 24 21 21 24 26 26 25 22 23 25 22 20 21 18 16 17 17 15 14 14 16 17 16 15
36 32 28 28 28 29 32 33 32 30 26 26 28 24 22 25 26 26 25 22 22 26 27 26 25 24 23 22 20 20 21 18 17 18 16 14 15 14 16 18 18 18
34 30 26 25 26 29 32 32 32 32 27 25 27 24 24 28 28 26 26 23 23 25 25 25 26 26 24 23 22 20 19 17 17 18 16 14 15 15 17 19 19 20
33 31 28 26 27 29 32 32 33 34 31 29 28 25 26 30 27 25 26 25 24 24 24 26 27 25 24 24 23 20 20 19 19 19 18 17 17 18 20 22 22 21
34 32 29 28 28 29 31 33 34 35 34 33 30 25 27 31 27 25 26 26 25 25 25 27 27 25 25 26 22 20 20 20 20 21 19 18 20 21 22 22 23 22
36 35 31 29 30 30 31 33 35 36 36 35 31 28 29 30 27 26 28 29 28 28 28 29 29 26 28 27 22 20 21 20 21 24 22 21 22 23 22 21 23 22
36 36 34 31 31 32 33 34 36 36 37 36 32 30 29 28 27 28 30 31 31 29 29 30 29 28 29 27 22 21 23 22 23 25 25 23 23 23 21 21 23 22
37 37 36 34 33 33 33 35 37 40 40 38 34 32 29 28 29 29 29 32 32 30 31 30 29 30 29 24 21 23 23 22 24 27 23 19 20 22 21 22 23 22
39 39 39 38 35 32 33 36 38 41 41 37 35 35 32 30 30 29 30 31 30 30 33 32 29 30 29 25 23 23 24 25 27 26 21 17 19 22 22 23 24 23
40 40 40 40 35 29 30 35 37 39 40 38 37 37 34 32 30 31 32 31 29 31 33 33 32 30 29 28 26 25 26 28 28 26 24 21 22 22 23 24 25 24
42 42 41 41 37 30 30 34 37 38 40 42 43 39 36 34 31 32 35 32 30 33 33 33 34 31 28 29 29 30 31 29 28 28 26 23 23 23 23 24 25 25
42 42 41 41 37 31 30 32 35 38 38 41 44 40 36 34 33 34 35 33 33 35 32 33 35 32 30 33 33 34 33 30 30 29 23 20 23 24 24 25 26 26
40 40 40 39 36 32 30 32 35 38 39 41 43 40 36 34 35 36 37 35 35 35 32 32 37 37 37 39 37 35 33 31 31 27 20 19 24 25 24 27 27 27
38 37 38 39 38 35 32 34 37 38 39 42 45 43 38 35 36 38 37 35 35 35 35 38 42 44 44 41 37 33 31 31 30 26 22 22 25 25 25 27 28 28
36 37 38 40 40 37 33 34 38 39 39 43 45 44 40 36 36 38 37 35 35 35 38 43 45 46 45 40 35 33 32 31 29 27 26 25 25 25 26 27 29 30
36 37 38 39 39 38 35 35 37 37 38 42 44 44 41 36 36 39 38 37 35 34 39 45 46 45 43 39 36 35 33 32 29 27 27 27 26 25 26 27 29 31
37 37 37 38 38 37 37 37 36 35 37 41 43 44 42 39 39 40 38 37 35 33 39 46 45 43 42 39 37 36 34 32 29 25 24 26 27 26 26 28 29 31
38 38 37 38 38 38 38 36 35 36 38 41 43 43 41 41 42 40 38 39 35 32 40 47 43 41 42 39 38 38 35 33 29 23 21 24 28 28 26 28 30 31
38 38 38 39 38 39 38 35 35 38 40 41 43 42 41 43 42 39 38 40 35 30 38 46 42 39 42 41 39 38 37 35 31 25 24 27 29 27 26 28 30 32
38 38 39 41 40 40 39 36 36 39 41 43 45 44 43 42 40 36 37 39 34 29 36 45 42 39 41 42 40 39 38 37 33 27 27 30 29 27 27 28 30 31
37 38 38 40 41 41 40 38 39 40 43 47 47 44 43 40 37 36 35 36 33 28 34 43 41 38 41 42 41 40 39 38 36 32 32 32 29 27 28 27 28 31
36 37 37 38 39 39 38 39 41 42 43 46 45 42 41 39 37 34 30 29 28 26 33 43 41 38 41 42 40 41 40 39 39 37 35 33 29 28 27 26 28 31
Wind_Direction
215 222 221 211 207 208 210 213 213 211 205 205 209 209 210 208 204 204 205 207 214 219 219 219 220 220 219 217 215 214 213 215 215 218 222 224 226 226 225 225 224 221
213 220 219 208 207 210 209 212 215 214 207 203 206 210 211 210 205 203 205 205 211 217 218 219 220 220 220 218 216 212 212 215 214 216 223 225 226 226 223 220 221 221
210 216 216 210 210 211 208 211 215 214 208 201 204 208 210 208 206 205 205 204 210 216 218 220 220 220 220 218 217 215 214 215 216 217 220 222 225 227 227 224 221 221
212 220 222 217 214 213 210 211 215 213 206 203 205 205 203 202 203 205 206 205 208 213 216 219 219 217 218 217 216 215 214 214 215 218 219 221 222 219 228 242 237 224
220 226 227 219 213 214 213 213 216 214 208 206 207 204 200 198 200 206 207 204 206 209 213 217 216 214 215 216 214 214 216 216 215 218 219 219 220 214 217 230 234 227
220 226 226 216 212 214 215 214 216 216 211 207 207 205 200 197 198 204 205 203 204 206 209 212 212 212 212 211 210 213 217 216 214 218 217 214 220 219 214 216 219 220
220 226 222 209 209 215 216 215 215 215 213 209 207 205 201 200 199 199 201 202 202 202 205 206 208 212 211 208 209 213 213 211 214 217 216 216 219 218 222 226 224 222
225 226 218 208 210 215 217 217 215 215 213 210 209 205 201 202 200 196 198 200 200 199 201 205 208 210 211 209 209 211 210 210 214 215 214 216 218 221 230 236 233 227
226 221 214 210 211 212 216 216 214 214 213 211 210 207 203 204 202 198 197 198 200 198 199 207 211 211 214 214 211 210 210 210 213 214 216 218 221 231 238 237 235 228
222 218 213 210 209 211 214 214 213 215 215 213 211 206 205 204 202 200 198 199 200 198 198 208 211 210 216 219 212 208 209 211 217 222 228 231 230 236 238 234 235 228
220 221 220 216 212 211 212 212 212 213 214 214 210 206 206 204 201 201 200 200 201 198 199 206 208 209 217 219 211 209 211 212 219 226 232 236 235 236 233 230 234 229
224 226 225 223 218 211 210 211 211 211 212 213 209 206 206 203 202 202 201 201 202 201 201 204 206 209 215 215 208 209 211 212 220 226 228 229 232 233 229 227 231 228
226 229 229 227 222 212 208 210 211 212 212 211 209 208 207 205 203 203 203 202 203 203 203 203 204 206 210 211 209 208 210 216 224 226 223 222 228 230 228 227 229 226
227 229 230 227 221 209 206 209 211 212 211 210 210 208 207 206 204 203 204 203 204 206 204 203 203 204 207 209 208 208 214 222 227 226 225 228 231 229 225 227 229 224
227 228 227 224 219 209 205 207 210 211 211 212 213 210 207 207 205 204 205 204 205 206 204 203 204 203 204 205 207 214 220 223 226 227 227 229 232 229 225 226 227 224
227 226 223 221 218 208 203 206 208 208 209 212 214 212 208 206 204 205 206 205 206 206 202 203 206 204 205 209 216 223 224 222 225 228 222 219 228 229 225 225 226 223
222 219 217 216 212 204 202 205 206 207 209 212 213 211 207 205 203 204 206 205 207 205 202 206 212 212 214 219 224 227 225 223 227 228 216 213 227 230 226 226 225 221
212 208 208 209 207 202 201 202 204 208 211 213 214 211 206 204 203 203 204 205 206 206 208 214 218 220 221 223 224 224 224 225 228 230 226 225 231 231 228 228 225 221
202 201 205 208 208 204 199 199 203 206 209 211 212 210 206 205 205 203 202 204 205 208 215 220 223 224 224 222 221 221 221 223 227 232 233 234 235 232 229 228 224 221
199 199 202 204 206 201 195 197 201 204 208 211 212 210 206 204 206 203 201 203 206 209 216 222 226 227 223 220 219 220 219 221 227 232 233 235 236 234 229 226 223 222
198 198 199 200 200 197 194 197 200 201 207 211 212 211 207 206 208 205 200 202 206 208 215 223 228 228 222 218 218 219 217 219 225 228 228 230 233 232 228 225 223 223
198 198 198 197 198 196 194 197 199 201 206 209 209 207 207 210 210 206 202 204 205 208 216 224 229 228 221 216 217 218 216 218 219 218 216 221 230 232 227 223 224 225
198 197 196 196 196 196 196 196 199 202 206 207 204 202 206 210 209 205 204 206 205 208 216 223 228 227 220 215 216 217 215 215 214 211 215 224 230 230 224 221 224 226
199 198 198 198 196 196 197 197 199 204 206 205 202 202 206 208 206 204 205 206 206 208 215 222 226 225 219 214 215 217 216 214 211 208 216 225 227 226 225 223 225 228
201 200 200 199 196 198 200 200 201 206 208 204 202 203 206 205 203 204 205 206 208 210 215 221 226 225 219 214 215 217 216 214 211 210 217 223 224 225 224 221 224 230
203 202 202 200 197 198 200 202 205 208 207 204 201 202 206 205 202 202 204 205 209 211 214 219 224 224 218 214 215 217 215 213 211 211 215 220 223 224 222 217 221 229
Height
1489 1491 1494 1497 1499 1502 1504 1504 1504 1505 1507 1508 1510 1512 1515 1517 1518 1520 1523 1524 1526 1527 1529 1531 1531 1532 1534 1535 1536 1537 1538 1538 1539 1540 1541 1542 1542 1543 1543 1544 1544 1545
1486 1487 1491 1494 1496 1498 1501 1502 1502 1502 1503 1505 1507 1509 1511 1514 1515 1518 1520 1521 1523 1525 1527 1528 1529 1530 1531 1532 1533 1534 1535 1536 1537 1538 1539 1539 1540 1540 1540 1541 1542 1543
1482 1484 1486 1489 1492 1495 1497 1500 1501 1500 1501 1503 1504 1506 1508 1510 1512 1515 1517 1519 1520 1522 1524 1525 1527 1528 1529 1530 1531 1532 1533 1534 1535 1536 1537 1537 1538 1538 1538 1539 1540 1541
1477 1479 1482 1486 1489 1493 1495 1497 1499 1499 1499 1500 1501 1502 1504 1506 1509 1512 1513 1515 1517 1519 1521 1523 1524 1526 1526 1527 1528 1529 1530 1532 1533 1534 1534 1535 1535 1536 1537 1538 1538 1539
1473 1475 1479 1483 1487 1490 1492 1493 1495 1496 1496 1496 1498 1499 1501 1503 1506 1508 1510 1511 1513 1516 1518 1520 1522 1523 1524 1525 1526 1526 1527 1529 1530 1531 1531 1532 1533 1534 1536 1537 1537 1537
1469 1471 1475 1479 1483 1486 1488 1489 1492 1494 1494 1494 1495 1496 1498 1500 1502 1504 1506 1508 1510 1512 1515 1517 1519 1520 1520 1522 1523 1523 1524 1526 1527 1528 1529 1530 1531 1532 1533 1533 1534 1535
1466 1467 1471 1475 1478 1481 1484 1486 1488 1491 1491 1492 1492 1494 1495 1497 1499 1500 1503 1505 1506 1508 1511 1514 1515 1516 1517 1519 1520 1521 1522 1523 1525 1526 1527 1527 1529 1529 1529 1529 1530 1531
1463 1465 1467 1471 1474 1477 1479 1482 1484 1487 1488 1489 1490 1491 1493 1495 1495 1496 1499 1501 1503 1505 1508 1510 1511 1513 1515 1516 1517 1518 1519 1521 1523 1524 1524 1525 1526 1526 1526 1526 1527 1528
1459 1461 1464 1466 1470 1473 1475 1477 1480 1482 1484 1485 1487 1489 1490 1492 1492 1493 1495 1497 1499 1502 1504 1506 1508 1510 1512 1512 1514 1515 1517 1518 1520 1521 1522 1523 1523 1523 1523 1524 1524 1525
1454 1457 1459 1461 1465 1468 1470 1473 1476 1478 1480 1481 1483 1486 1487 1488 1490 1491 1493 1494 1496 1498 1501 1502 1504 1507 1508 1509 1511 1513 1515 1516 1516 1517 1519 1519 1520 1520 1521 1522 1522 1523
1448 1451 1454 1457 1459 1463 1466 1469 1471 1474 1476 1477 1480 1482 1483 1485 1487 1488 1489 1491 1493 1495 1497 1499 1500 1503 1505 1507 1509 1510 1512 1513 1513 1514 1516 1517 1518 1518 1519 1520 1520 1521
1442 1445 1449 1452 1454 1457 1461 1464 1467 1470 1472 1473 1476 1478 1479 1481 1483 1484 1485 1487 1489 1492 1494 1496 1497 1499 1502 1504 1506 1508 1509 1510 1510 1512 1514 1515 1515 1516 1517 1517 1518 1519
1438 1440 1444 1447 1449 1453 1457 1460 1462 1465 1467 1469 1472 1473 1475 1477 1479 1480 1482 1484 1487 1489 1491 1493 1494 1496 1499 1501 1503 1505 1506 1506 1507 1509 1511 1512 1512 1513 1514 1515 1515 1516
1433 1436 1439 1442 1445 1449 1453 1456 1458 1461 1463 1465 1468 1469 1471 1473 1475 1477 1478 1481 1484 1486 1488 1490 1491 1492 1495 1498 1500 1501 1501 1503 1504 1507 1508 1509 1509 1510 1511 1512 1512 1514
1429 1432 1435 1437 1441 1444 1448 1451 1454 1456 1459 1461 1463 1465 1467 1469 1472 1473 1475 1478 1481 1483 1485 1486 1486 1487 1490 1493 1495 1496 1497 1500 1502 1504 1505 1506 1507 1508 1508 1509 1510 1511
1424 1427 1430 1432 1436 1439 1443 1446 1449 1453 1455 1456 1458 1461 1464 1466 1468 1470 1471 1474 1477 1479 1480 1481 1481 1483 1485 1487 1489 1492 1494 1497 1498 1500 1503 1504 1504 1505 1506 1506 1507 1508
1420 1422 1425 1427 1431 1434 1438 1441 1444 1448 1450 1452 1454 1457 1460 1463 1465 1466 1467 1470 1473 1475 1476 1475 1476 1477 1479 1482 1486 1489 1492 1493 1495 1498 1500 1501 1501 1502 1503 1504 1505 1506
1415 1417 1420 1423 1426 1429 1433 1437 1440 1443 1445 1447 1449 1452 1456 1458 1460 1462 1463 1466 1470 1471 1470 1470 1471 1472 1475 1479 1483 1487 1489 1490 1492 1495 1497 1498 1498 1499 1500 1501 1502 1503
1411 1413 1415 1418 1420 1424 1428 1432 1435 1437 1440 1442 1444 1447 1451 1454 1456 1458 1459 1462 1466 1467 1465 1466 1467 1468 1471 1476 1481 1483 1485 1487 1490 1492 1494 1495 1495 1497 1498 1498 1500 1500
1407 1408 1411 1413 1416 1419 1423 1427 1429 1432 1434 1437 1440 1443 1447 1449 1451 1453 1455 1457 1461 1462 1461 1461 1463 1465 1469 1474 1477 1480 1482 1484 1487 1489 1491 1492 1493 1494 1495 1496 1497 1498
1402 1404 1407 1409 1412 1415 1418 1421 1424 1427 1429 1432 1435 1438 1442 1444 1446 1448 1451 1453 1456 1457 1457 1457 1458 1462 1466 1470 1473 1476 1478 1481 1484 1486 1487 1489 1490 1491 1493 1493 1494 1495
1397 1399 1402 1405 1407 1409 1412 1416 1419 1421 1424 1426 1429 1434 1438 1440 1442 1444 1446 1448 1451 1452 1452 1452 1454 1458 1463 1467 1470 1472 1475 1478 1481 1483 1484 1486 1487 1488 1490 1491 1491 1492
1392 1394 1397 1399 1401 1404 1406 1410 1413 1416 1419 1421 1424 1429 1432 1434 1437 1440 1442 1443 1446 1447 1447 1447 1450 1454 1459 1463 1465 1468 1471 1474 1477 1479 1480 1482 1484 1485 1487 1488 1488 1489
1387 1389 1391 1393 1395 1398 1401 1405 1408 1411 1413 1416 1419 1422 1425 1429 1433 1436 1437 1439 1441 1442 1443 1443 1446 1450 1455 1459 1462 1464 1467 1470 1473 1474 1476 1479 1481 1483 1484 1485 1486 1487
1382 1384 1386 1388 1390 1393 1397 1400 1404 1406 1407 1410 1414 1418 1421 1425 1429 1431 1433 1435 1437 1439 1439 1440 1442 1447 1451 1455 1458 1461 1463 1467 1469 1470 1472 1475 1478 1480 1482 1484 1484 1485
1378 1381 1383 1384 1386 1390 1393 1396 1398 1401 1403 1407 1411 1415 1418 1422 1425 1427 1430 1432 1434 1435 1436 1437 1439 1443 1447 1451 1455 1457 1460 1463 1465 1466 1469 1472 1475 1477 1479 1481 1482 1482